| time (UTC) | temp C | wind direction | speed KPH | gust KPH | rain 1hr cm | rain 24hr cm | rain mn cm | humidity % | barometer mb |
| 20260902123001 | 12 | 260 | 12.9 | 0.0 | 0.00 | 0.00 | 0.00 | 59 | 1010.6 |
| 20260902121502 | 11 | 260 | 8.0 | 0.0 | 0.00 | 0.00 | 0.00 | 59 | 1010.6 |
| 20260902120001 | 11 | 244 | 9.7 | 0.0 | 0.00 | 0.00 | 0.00 | 59 | 1010.6 |
| 20260902114502 | 15 | 244 | 16.1 | 0.0 | 0.00 | 0.00 | 0.00 | 59 | 1010.6 |
| 20260902113001 | 17 | 244 | 11.3 | 0.0 | 0.00 | 0.00 | 0.00 | 59 | 1010.6 |
| 20260902111502 | 12 | 244 | 16.1 | 0.0 | 0.00 | 0.00 | 0.00 | 59 | 1010.6 |
| 20260902110001 | 19 | 244 | 12.9 | 0.0 | 0.00 | 0.00 | 0.00 | 59 | 1010.6 |
| 20260902104502 | 18 | 233 | 12.9 | 0.0 | 0.00 | 0.00 | 0.00 | 59 | 1010.6 |
| 20260902103002 | 13 | 233 | 12.9 | 0.0 | 0.00 | 0.00 | 0.00 | 59 | 1010.6 |
| 20260902101502 | 10 | 233 | 12.9 | 0.0 | 0.00 | 0.00 | 0.00 | 59 | 1010.6 |
| 20260902100002 | 10 | 233 | 9.7 | 0.0 | 0.00 | 0.00 | 0.00 | 59 | 1010.6 |
| 20260902094502 | 11 | 233 | 9.7 | 0.0 | 0.00 | 0.00 | 0.00 | 59 | 1010.6 |
| 20260902093002 | 15 | 233 | 11.3 | 0.0 | 0.00 | 0.00 | 0.00 | 59 | 1010.6 |
| 20260902091502 | 15 | 248 | 12.9 | 0.0 | 0.00 | 0.00 | 0.00 | 59 | 1010.6 |
| 20260902090002 | 15 | 248 | 16.1 | 0.0 | 0.00 | 0.00 | 0.00 | 59 | 1010.6 |
| 20260902084502 | 9 | 248 | 11.3 | 0.0 | 0.00 | 0.00 | 0.00 | 59 | 1010.6 |
| 20260902083002 | 11 | 248 | 9.7 | 0.0 | 0.00 | 0.00 | 0.00 | 59 | 1010.6 |
| 20260902081502 | 12 | 248 | 11.3 | 0.0 | 0.00 | 0.00 | 0.00 | 59 | 1010.6 |
| 20260902080001 | 12 | 273 | 12.9 | 0.0 | 0.00 | 0.00 | 0.00 | 59 | 1010.6 |
| 20260902074502 | 14 | 273 | 12.9 | 0.0 | 0.00 | 0.00 | 0.00 | 59 | 1010.6 |
| 20260902073001 | 12 | 273 | 8.0 | 0.0 | 0.00 | 0.00 | 0.00 | 59 | 1010.6 |
| 20260902071502 | 14 | 273 | 9.7 | 0.0 | 0.00 | 0.00 | 0.00 | 59 | 1010.6 |
| 20260902070002 | 13 | 273 | 9.7 | 0.0 | 0.00 | 0.00 | 0.00 | 59 | 1010.6 |
| 20260902064502 | 11 | 273 | 9.7 | 0.0 | 0.00 | 0.00 | 0.00 | 59 | 1010.6 |
| 20260902063002 | 10 | 266 | 4.8 | 0.0 | 0.00 | 0.00 | 0.00 | 59 | 1010.6 |
| 20260902061502 | 10 | 266 | 3.2 | 0.0 | 0.00 | 0.00 | 0.00 | 59 | 1010.6 |
| 20260902060003 | 9 | 266 | 3.2 | 0.0 | 0.00 | 0.00 | 0.00 | 59 | 1010.6 |
| 20260902054502 | 7 | 266 | 11.3 | 0.0 | 0.00 | 0.00 | 0.00 | 59 | 1010.6 |
| 20260902053003 | 6 | 266 | 8.0 | 0.0 | 0.00 | 0.00 | 0.00 | 59 | 1010.6 |
| 20260902051502 | 5 | 266 | 9.7 | 0.0 | 0.00 | 0.00 | 0.00 | 59 | 1010.6 |
| 20260902050004 | 5 | 233 | 11.3 | 0.0 | 0.00 | 0.00 | 0.00 | 59 | 1010.6 |
| 20260902044502 | 5 | 233 | 6.4 | 0.0 | 0.00 | 0.00 | 0.00 | 59 | 1010.6 |
| 20260902043002 | 5 | 233 | 11.3 | 0.0 | 0.00 | 0.00 | 0.00 | 59 | 1010.6 |
| 20260902041502 | 5 | 233 | 12.9 | 0.0 | 0.00 | 0.00 | 0.00 | 59 | 1010.6 |
| 20260902040003 | 4 | 233 | 6.4 | 0.0 | 0.00 | 0.00 | 0.00 | 59 | 1010.6 |
| 20260902034502 | 5 | 242 | 9.7 | 0.0 | 0.00 | 0.00 | 0.00 | 59 | 1010.6 |
| 20260902033003 | 5 | 242 | 0.0 | 0.0 | 0.00 | 0.00 | 0.00 | 59 | 1010.6 |
| 20260902031502 | 6 | 242 | 11.3 | 0.0 | 0.00 | 0.00 | 0.00 | 59 | 1010.6 |
| 20260902030002 | 7 | 242 | 11.3 | 0.0 | 0.00 | 0.00 | 0.00 | 59 | 1010.6 |
| 20260902024502 | 7 | 242 | 4.8 | 0.0 | 0.00 | 0.00 | 0.00 | 59 | 1010.6 |
| 20260902023002 | 6 | 242 | 0.0 | 0.0 | 0.00 | 0.00 | 0.00 | 59 | 1010.6 |
| 20260902021501 | 6 | 246 | 0.0 | 0.0 | 0.00 | 0.00 | 0.00 | 59 | 1010.6 |
| 20260902020002 | 6 | 246 | 0.0 | 0.0 | 0.00 | 0.00 | 0.00 | 59 | 1010.6 |
| 20260902014502 | 5 | 246 | 0.0 | 0.0 | 0.00 | 0.00 | 0.00 | 59 | 1010.6 |
| 20260902013003 | 6 | 246 | 0.0 | 0.0 | 0.00 | 0.00 | 0.00 | 59 | 1010.6 |
| 20260902011502 | 6 | 246 | 1.6 | 0.0 | 0.00 | 0.00 | 0.00 | 59 | 1010.6 |
| 20260902010002 | 7 | 246 | 0.0 | 0.0 | 0.00 | 0.00 | 0.00 | 59 | 1010.6 |
| 20260902004502 | 7 | 268 | 4.8 | 0.0 | 0.00 | 0.00 | 0.00 | 59 | 1010.6 |
| 20260902003002 | 7 | 268 | 1.6 | 0.0 | 0.00 | 0.00 | 0.00 | 59 | 1010.6 |
| 20260902001502 | 7 | 268 | 0.0 | 0.0 | 0.00 | 0.00 | 0.00 | 59 | 1010.6 |
| 20260902000001 | 6 | 268 | 0.0 | 0.0 | 0.00 | 0.00 | 0.00 | 59 | 1010.6 |
| 20260901234502 | 6 | 268 | 0.0 | 0.0 | 0.00 | 0.00 | 0.00 | 59 | 1010.6 |
| 20260901233002 | 7 | 264 | 1.6 | 0.0 | 0.00 | 0.00 | 0.00 | 59 | 1010.6 |
| 20260901231502 | 6 | 264 | 0.0 | 0.0 | 0.00 | 0.00 | 0.00 | 59 | 1010.6 |
| 20260901230002 | 7 | 264 | 0.0 | 0.0 | 0.00 | 0.00 | 0.00 | 59 | 1010.6 |
| 20260901224502 | 7 | 264 | 0.0 | 0.0 | 0.00 | 0.00 | 0.00 | 59 | 1010.6 |
| 20260901223002 | 7 | 264 | 0.0 | 0.0 | 0.00 | 0.00 | 0.00 | 59 | 1010.6 |
| 20260901221502 | 6 | 264 | 0.0 | 0.0 | 0.00 | 0.00 | 0.00 | 59 | 1010.6 |
| 20260901220002 | 6 | 276 | 0.0 | 0.0 | 0.00 | 0.00 | 0.00 | 59 | 1010.6 |
| 20260901214502 | 7 | 276 | 0.0 | 0.0 | 0.00 | 0.00 | 0.00 | 59 | 1010.6 |
| 20260901213001 | 7 | 276 | 0.0 | 0.0 | 0.00 | 0.00 | 0.00 | 59 | 1010.6 |
| 20260901211502 | 7 | 276 | 0.0 | 0.0 | 0.00 | 0.00 | 0.00 | 59 | 1010.6 |
| 20260901210002 | 7 | 276 | 0.0 | 0.0 | 0.00 | 0.00 | 0.00 | 59 | 1010.6 |
| 20260901204502 | 7 | 160 | 0.0 | 0.0 | 0.00 | 0.00 | 0.00 | 59 | 1010.6 |
| 20260901203001 | 8 | 160 | 0.0 | 0.0 | 0.00 | 0.00 | 0.00 | 59 | 1010.6 |
| 20260901201502 | 8 | 160 | 0.0 | 0.0 | 0.00 | 0.00 | 0.00 | 59 | 1010.6 |
| 20260901200001 | 8 | 160 | 1.6 | 0.0 | 0.00 | 0.00 | 0.00 | 59 | 1010.6 |
| 20260901194502 | 8 | 160 | 0.0 | 0.0 | 0.00 | 0.00 | 0.00 | 59 | 1010.6 |
| 20260901193001 | 7 | 160 | 0.0 | 0.0 | 0.00 | 0.00 | 0.00 | 59 | 1010.6 |
| 20260901191502 | 8 | 220 | 0.0 | 0.0 | 0.00 | 0.00 | 0.00 | 59 | 1010.6 |
| 20260901190001 | 8 | 220 | 0.0 | 0.0 | 0.00 | 0.00 | 0.00 | 59 | 1010.6 |
| 20260901184502 | 8 | 220 | 0.0 | 0.0 | 0.00 | 0.00 | 0.00 | 59 | 1010.6 |
| 20260901183001 | 8 | 220 | 0.0 | 0.0 | 0.00 | 0.00 | 0.00 | 59 | 1010.6 |
| 20260901181502 | 9 | 220 | 0.0 | 0.0 | 0.00 | 0.00 | 0.00 | 59 | 1010.6 |
| 20260901180001 | 9 | 220 | 0.0 | 0.0 | 0.00 | 0.00 | 0.00 | 59 | 1010.6 |
| 20260901174502 | 10 | 150 | 0.0 | 0.0 | 0.00 | 0.00 | 0.00 | 59 | 1010.6 |
| 20260901173002 | 10 | 150 | 0.0 | 0.0 | 0.00 | 0.00 | 0.00 | 59 | 1010.6 |
| 20260901171502 | 11 | 150 | 3.2 | 0.0 | 0.00 | 0.00 | 0.00 | 59 | 1010.6 |
| 20260901170002 | 11 | 150 | 0.0 | 0.0 | 0.00 | 0.00 | 0.00 | 59 | 1010.6 |
| 20260901164502 | 12 | 150 | 1.6 | 0.0 | 0.00 | 0.00 | 0.00 | 59 | 1010.6 |
| 20260901163003 | 12 | 144 | 3.2 | 0.0 | 0.00 | 0.00 | 0.00 | 59 | 1010.6 |
| 20260901161502 | 12 | 144 | 0.0 | 0.0 | 0.00 | 0.00 | 0.00 | 59 | 1010.6 |
| 20260901160003 | 13 | 144 | 1.6 | 0.0 | 0.00 | 0.00 | 0.00 | 59 | 1010.6 |
| 20260901154502 | 13 | 144 | 0.0 | 0.0 | 0.00 | 0.00 | 0.00 | 59 | 1010.6 |
| 20260901153003 | 15 | 144 | 4.8 | 0.0 | 0.00 | 0.00 | 0.00 | 59 | 1010.6 |
| 20260901151502 | 15 | 144 | 4.8 | 0.0 | 0.00 | 0.00 | 0.00 | 59 | 1010.6 |
| 20260901150002 | 14 | 165 | 8.0 | 0.0 | 0.00 | 0.00 | 0.00 | 59 | 1010.6 |
| 20260901144502 | 15 | 165 | 9.7 | 0.0 | 0.00 | 0.00 | 0.00 | 59 | 1010.6 |
| 20260901143003 | 14 | 165 | 8.0 | 0.0 | 0.00 | 0.00 | 0.00 | 59 | 1010.6 |
| 20260901141502 | 18 | 165 | 9.7 | 0.0 | 0.00 | 0.00 | 0.00 | 59 | 1010.6 |
| 20260901140003 | 15 | 165 | 8.0 | 0.0 | 0.00 | 0.00 | 0.00 | 59 | 1010.6 |
| 20260901134502 | 17 | 165 | 9.7 | 0.0 | 0.00 | 0.00 | 0.00 | 59 | 1010.6 |
| 20260901133002 | 15 | 184 | 6.4 | 0.0 | 0.00 | 0.00 | 0.00 | 59 | 1010.6 |
| 20260901131502 | 17 | 184 | 9.7 | 0.0 | 0.00 | 0.00 | 0.00 | 59 | 1010.6 |
| 20260901130002 | 15 | 184 | 11.3 | 0.0 | 0.00 | 0.00 | 0.00 | 59 | 1010.6 |
| 20260901124502 | 14 | 184 | 1.6 | 0.0 | 0.00 | 0.00 | 0.00 | 59 | 1010.6 |